Retour au catalogue

METEOR 2-17 DEB

ActifPO
NORAD 28988·DEBRIS·🇷🇺 Russia

Lancé Jan 30, 1988 depuis Plesetsk Cosmodrome

Loading…

Prochains Passages (prochaines 24 heures)

TLE

FraisSource: Space-Track

Époque: Sep 12, 2026, 03:39 UTC

1 28988U 88005C   26255.15251190  .00001759  00000-0  11306-2 0  9995
2 28988  82.5359 194.5127 0013309   5.5854 354.5463 14.02639807625723

Suivez METEOR 2-17 DEB en temps réel avec AllMySat

Download on the App Store